Regional Weather Roundup
Issued by NWS

Home | Current Version | Previous Version | Text Only | Print | Product List | Glossary On
Versions: 1 2 3 4 5 6 7 8 9 10 11 12 13 14 15 16 17 18 19 20 21 22 23 24 25 26 27 28 29 30 31 32 33 34 35 36 37 38 39 40 41 42 43 44 45 46 47 48 49 50
000
ASUS44 KOUN 281310
RWROK

WEATHER ROUNDUP FOR OKLAHOMA
NATIONAL WEATHER SERVICE NORMAN OK
800 AM CDT TUE MAR 28 2017

NOTE: "FAIR" INDICATES FEW OR NO CLOUDS BELOW 12,000 FEET WITH NO
      SIGNIFICANT WEATHER AND/OR OBSTRUCTIONS TO VISIBILITY.

OKZ001>007-009>012-014-015-017-281400-
NORTHWEST OKLAHOMA AND THE PANHANDLE

CITY           SKY/WX    TMP DP  RH WIND       PRES   REMARKS
GAGE           LGT RAIN  47  45  93 E13       29.92F FOG
GUYMON         CLOUDY    48  45  89 E9        29.87S
ENID/WOODRING  CLOUDY    48  48 100 MISG      29.99R FOG
$$

OKZ016-021>023-033>039-044-045-281400-
SOUTHWEST OKLAHOMA

CITY           SKY/WX    TMP DP  RH WIND       PRES   REMARKS
LAWTON/REGL    CLOUDY    54  50  86 E14       29.91R
LAWTON/FT SILL CLOUDY    52  51  95 E8        29.90S
FREDERICK      CLOUDY    54  49  83 E15G24    29.85S
CLINTON        CLOUDY    49  46  90 E13       29.92R FOG
HOBART         CLOUDY    51  47  86 E18       29.91R
ALTUS AFB      CLOUDY    55  48  76 E14       29.88R
$$

OKZ018>020-024>031-281400-
CENTRAL OKLAHOMA

CITY           SKY/WX    TMP DP  RH WIND       PRES   REMARKS
OKLAHOMA CITY  CLOUDY    49  46  90 E9        29.97R
OKC/WILEY POST CLOUDY    49  47  93 E13       29.97R
OKC/TINKER AFB CLOUDY    47  47  97 E14       29.96R FOG
STILLWATER     PTCLDY    47  45  93 NE7       29.98F
GUTHRIE        CLOUDY    48  46  93 E7        29.98R
$$

OKZ008-013-054>072-281400-
NORTHEAST OKLAHOMA

CITY           SKY/WX    TMP DP  RH WIND       PRES   REMARKS
TULSA          CLOUDY    53  49  86 NE9       29.99R
TULSA/JONES    CLOUDY    53  47  79 NE10      30.00R
PONCA CITY     CLOUDY    51  47  86 NE3       30.01R
BARTLESVILLE   CLOUDY    53  46  77 E9        30.03R
MUSKOGEE       CLEAR     50  48  93 N6        30.01R
$$

OKZ032-040>043-046>053-073>077-281400-
SOUTH CENTRAL/SOUTHEAST OKLAHOMA

CITY           SKY/WX    TMP DP  RH WIND       PRES   REMARKS
ARDMORE/DWNTWN CLOUDY    54  48  82 E7        29.93R
MCALESTER      MOCLDY    50  47  89 NE3       29.98R FOG
$$





USA.gov is the U.S. government's official web portal to all federal, state and local government web resources and services.